E27EKO-13 Weather Reports


time (UTC)temp
F
wind
direction
speed
knots
gust
knots
rain 1hr
in
rain 24hr
in
rain mn
in
humidity
%
barometer
mb
20260504181023 379 0 0.0 0.0 0.00 0.00 0.00 100
20260504180501 379 0 0.0 0.0 0.00 0.00 0.00 100
20260504175939 379 0 0.0 0.0 0.00 0.00 0.00 100
20260504175417 379 0 0.0 0.0 0.00 0.00 0.00 100
20260504174855 379 0 0.0 0.0 0.00 0.00 0.00 100
20260504174333 379 0 0.0 0.0 0.00 0.00 0.00 100
20260504173811 379 0 0.0 0.0 0.00 0.00 0.00 100
20260504173249 379 0 0.0 0.0 0.00 0.00 0.00 100
20260504172727 379 0 0.0 0.0 0.00 0.00 0.00 100
20260504172205 379 0 0.0 0.0 0.00 0.00 0.00 100
20260504171643 379 0 0.0 0.0 0.00 0.00 0.00 100
20260504171121 379 0 0.0 0.0 0.00 0.00 0.00 100
20260504170559 379 0 0.0 0.0 0.00 0.00 0.00 100
20260504160154 85 0 0.0 0.0 0.00 0.00 0.00 99 1011.0
20260504150939 87 0 0.0 0.0 0.00 0.00 0.00 91 1010.0
20260504150417 87 0 0.0 0.0 0.00 0.00 0.00 91 1010.0
20260504140859 86 0 0.0 0.0 0.00 0.00 0.00 94 1009.0
20260504130606 88 0 0.0 0.0 0.00 0.00 0.00 84 1008.0
20260504110645 90 0 0.0 0.0 0.00 0.00 0.00 75 1006.0
20260504110123 90 0 0.0 0.0 0.00 0.00 0.00 75 1006.0
20260504100152 90 0 0.0 0.0 0.00 0.00 0.00 75 1007.0
20260504081658 90 0 0.0 0.0 0.00 0.00 0.00 68 1006.0
20260504081136 92 0 0.0 0.0 0.00 0.00 0.00 64 1007.0
20260504080614 94 0 0.0 0.0 0.00 0.00 0.00 60 1007.0
20260504060146 107 0 0.0 0.0 0.00 0.00 0.00 51 1007.0
20260504050243 105 0 0.0 0.0 0.00 0.00 0.00 52 1009.0
20260504045721 105 0 0.0 0.0 0.00 0.00 0.00 53 1009.0
20260504045159 104 0 0.0 0.0 0.00 0.00 0.00 54 1009.0
20260504044637 104 0 0.0 0.0 0.00 0.00 0.00 55 1009.0
20260504044115 104 0 0.0 0.0 0.00 0.00 0.00 54 1009.0
20260504043553 105 0 0.0 0.0 0.00 0.00 0.00 53 1009.0
20260504043031 106 0 0.0 0.0 0.00 0.00 0.00 51 1009.0
20260504042510 106 0 0.0 0.0 0.00 0.00 0.00 51 1009.0
20260504041947 106 0 0.0 0.0 0.00 0.00 0.00 51 1009.0
20260504041425 106 0 0.0 0.0 0.00 0.00 0.00 52 1009.0
20260504040903 105 0 0.0 0.0 0.00 0.00 0.00 53 1009.0
20260504040341 104 0 0.0 0.0 0.00 0.00 0.00 54 1009.0
20260504035819 104 0 0.0 0.0 0.00 0.00 0.00 55 1009.0
20260504035257 105 0 0.0 0.0 0.00 0.00 0.00 54 1009.0
20260504034638 105 0 0.0 0.0 0.00 0.00 0.00 53 1009.0
20260504034116 104 0 0.0 0.0 0.00 0.00 0.00 53 1009.0
20260504033554 104 0 0.0 0.0 0.00 0.00 0.00 55 1009.0
20260504033032 103 0 0.0 0.0 0.00 0.00 0.00 54 1010.0